CAPE
37 33 13 4 0 1 6 7 8 2 0 0 0 4 24 33 40 3 0 0 0 0 0 0 0 0 0 0 0 0 0 0 0 0 0 0 0 0 0 0 0 0 0 0 0
54 50 35 9 0 0 1 9 2 0 1 1 0 0 10 2 17 8 3 4 45 44 0 0 0 0 0 0 0 0 0 0 0 0 0 0 0 0 0 0 0 0 0 0 0
48 75 44 30 4 0 2 4 0 0 1 3 0 0 0 1 0 0 0 4 56 57 0 0 0 0 0 0 0 0 0 0 0 0 0 0 0 0 0 0 0 0 0 0 0
13 61 78 37 19 0 0 2 0 0 0 9 1 0 0 0 0 0 0 0 5 61 1 1 0 0 0 0 0 0 0 0 0 0 0 0 0 0 0 0 0 0 0 0 0
9 26 62 25 32 5 0 1 0 5 0 0 0 0 0 0 0 0 0 0 0 0 3 2 2 0 0 0 0 0 0 0 0 0 0 0 0 0 0 0 0 0 0 0 0
5 7 6 19 15 11 11 4 0 7 1 0 0 0 0 0 0 0 0 0 0 7 9 3 2 0 0 0 0 0 0 0 0 0 0 0 0 0 0 0 0 0 0 0 0
8 3 2 4 15 19 23 14 0 22 6 0 0 0 0 0 0 0 0 0 0 19 16 8 1 0 0 0 0 0 0 0 0 0 0 0 0 0 0 0 0 0 0 0 0
19 6 6 3 28 40 36 33 11 28 21 23 12 0 0 0 0 0 0 0 0 0 0 38 32 20 0 0 0 0 0 0 0 0 0 0 0 0 0 0 0 0 0 0 0
32 17 5 2 2 40 29 48 43 19 16 38 1 0 0 0 0 0 0 0 0 0 0 6 0 0 0 0 0 0 0 0 0 0 0 0 0 0 0 0 0 0 0 0 0
25 26 13 8 2 25 43 38 32 0 14 17 8 0 0 0 0 0 0 0 0 0 0 0 0 1 1 1 0 0 0 0 0 0 0 0 0 0 0 0 0 0 0 0 0
39 32 14 17 2 20 30 7 0 0 4 0 0 0 0 0 0 0 0 0 0 0 0 0 1 0 0 0 0 0 0 0 1 0 0 0 0 0 0 0 0 0 0 0 0
57 66 27 22 32 1 0 0 0 0 0 0 0 0 0 0 0 0 0 0 0 0 0 0 0 0 0 0 0 0 0 0 0 0 0 0 0 0 0 0 0 0 0 0 0
63 54 31 11 33 5 1 0 0 0 0 0 0 1 0 0 0 0 0 0 0 0 0 0 0 0 0 0 0 0 0 1 0 0 0 0 0 0 0 0 0 0 0 0 0
52 72 42 21 2 0 8 0 0 0 0 0 0 0 0 9 1 0 0 0 0 0 0 0 0 0 0 0 0 1 0 0 0 1 0 0 0 0 0 0 0 0 0 0 0
42 70 47 51 18 24 12 0 0 0 0 0 1 4 9 0 0 0 0 4 0 0 0 0 0 0 0 0 0 0 0 0 0 2 0 0 1 0 0 0 0 0 0 0 0
10 25 27 28 7 1 9 0 0 0 0 0 2 6 7 2 13 2 8 20 7 2 2 0 0 0 0 0 0 0 0 3 2 3 0 0 0 0 0 0 0 0 0 0 0
14 46 40 30 3 20 21 3 0 0 0 0 1 6 6 2 10 2 9 3 0 2 0 1 0 2 0 1 0 1 4 0 0 1 0 0 0 0 0 0 0 0 0 0 0
33 27 7 4 6 54 35 0 0 0 0 0 0 2 1 0 2 2 2 3 4 2 0 0 0 0 1 3 1 2 1 0 0 0 0 0 0 0 0 0 0 0 0 0 0
35 13 6 0 28 80 2 0 0 0 0 1 1 2 0 1 0 0 3 1 1 0 0 0 0 0 0 0 1 0 2 0 0 0 0 0 0 0 0 0 0 0 0 0 0
19 5 27 31 39 32 0 0 0 0 0 0 0 0 0 0 0 2 0 0 0 0 0 0 0 0 0 0 0 0 0 0 1 0 0 0 0 0 0 0 0 0 0 0 0
3 2 1 23 88 3 0 0 0 0 0 0 0 0 0 0 0 0 0 0 0 0 0 0 0 0 1 0 0 0 3 4 0 0 0 0 0 0 0 0 0 0 0 0 0
4 0 7 73 0 0 0 0 1 0 0 0 0 0 0 0 0 0 0 0 0 0 0 0 0 0 0 0 0 0 0 0 0 0 0 0 0 0 0 0 0 0 0 0 0
2 2 40 0 0 0 1 0 0 0 0 0 0 0 0 0 0 0 0 0 0 0 0 0 0 0 0 0 0 2 0 0 0 0 0 0 0 0 0 0 0 0 1 0 0
2 0 1 1 0 0 1 2 0 0 0 0 0 0 0 0 0 1 2 0 0 0 0 0 0 0 0 0 0 0 0 0 0 0 0 0 0 0 0 0 0 0 5 0 0
0 0 1 0 0 0 1 0 0 0 0 0 0 0 0 3 0 3 0 0 0 0 0 0 0 0 0 0 0 1 1 1 0 0 0 0 0 0 0 0 0 0 0 0 0
3 1 2 1 0 6 1 0 0 0 0 0 0 0 0 2 0 1 0 1 0 0 0 1 0 0 0 0 1 0 0 0 1 2 1 0 0 0 0 0 0 0 0 1 0
1 10 4 3 0 1 1 0 0 0 0 0 0 0 0 0 0 0 0 1 0 3 2 6 0 0 0 0 0 0 0 0 2 1 0 1 0 0 0 0 0 0 0 0 0
CIN
-30 -7 -11 -19 -0 -0 -0 -1 -0 -0 -0 -0 -0 -4 -3 -4 -0 -2 -0 -0 -0 -0 -0 -0 -0 -0 -0 -0 -0 -0 -0 -0 -0 -0 -0 -0 -0 -0 -0 -0 -0 -0 -0 -0 -0
-0 -2 -12 -21 -0 -0 -0 -0 -1 -0 -0 -0 -0 -1 -1 -8 -6 -2 -29 -22 -16 -2 -0 -0 -0 -0 -0 -0 -0 -0 -0 -0 -0 -0 -0 -0 -0 -0 -0 -0 -0 -0 -0 -0 -0
-0 -0 -3 -14 -20 -0 -0 -0 -0 -0 -0 -0 -0 -0 -0 -18 -0 -0 -2 -3 -0 -3 -0 -0 -0 -0 -0 -0 -0 -0 -0 -0 -0 -0 -0 -0 -0 -0 -0 -0 -0 -0 -0 -0 -0
-0 -0 -0 -1 -7 -1 -0 -0 -0 -0 -0 -0 -0 -0 -0 -0 -0 -0 -0 -0 -4 -1 -12 -3 -0 -0 -0 -0 -0 -0 -0 -0 -0 -0 -0 -0 -0 -0 -0 -0 -0 -0 -0 -0 -0
-0 -6 -0 -3 -4 -9 -0 -0 -0 -0 -0 -0 -0 -0 -0 -0 -0 -0 -0 -0 -0 -0 -0 -1 -4 -0 -0 -0 -0 -0 -0 -0 -0 -0 -0 -0 -0 -0 -0 -0 -0 -0 -0 -0 -0
-0 -0 -0 -1 -2 -13 -27 -18 -0 -0 -0 -0 -0 -0 -0 -0 -0 -0 -0 -0 -1 -3 -1 -0 -2 -0 -0 -0 -0 -0 -0 -0 -0 -0 -0 -0 -0 -0 -0 -0 -0 -0 -0 -0 -0
-0 -0 -0 -0 -5 -4 -5 -38 -0 -0 -0 -0 -0 -0 -0 -0 -0 -0 -0 -0 -0 -3 -1 -4 -6 -0 -0 -0 -0 -0 -0 -0 -0 -0 -0 -0 -0 -0 -0 -0 -0 -0 -0 -0 -0
-0 -0 -0 -0 -5 -1 -8 -10 -9 -0 -2 -0 -0 -0 -0 -0 -0 -0 -0 -0 -0 -0 -0 -15 -7 -3 -0 -0 -0 -0 -0 -0 -0 -0 -0 -0 -0 -0 -0 -0 -0 -0 -0 -0 -0
-0 -0 -0 -0 -1 -1 -6 -0 -0 -2 -5 -1 -1 -0 -0 -0 -0 -0 -0 -0 -0 -0 -0 -9 -0 -0 -0 -0 -0 -0 -0 -0 -0 -0 -0 -0 -0 -0 -0 -0 -0 -0 -0 -0 -0
-0 -0 -0 -0 -0 -0 -7 -1 -3 -4 -10 -8 -1 -0 -0 -0 -0 -0 -0 -0 -0 -0 -0 -0 -1 -3 -2 -0 -0 -0 -0 -0 -0 -0 -0 -0 -0 -0 -0 -0 -0 -0 -0 -0 -0
-0 -0 -0 -0 -0 -0 -0 -4 -0 -0 -9 -0 -0 -0 -0 -0 -0 -0 -0 -0 -0 -0 -0 -0 -0 -0 -0 -0 -0 -0 -0 -0 -0 -0 -0 -0 -0 -0 -0 -0 -0 -0 -0 -0 -0
-0 -0 -0 -0 -0 -0 -0 -0 -0 -0 -0 -0 -0 -2 -0 -0 -0 -0 -0 -0 -0 -0 -0 -0 -0 -0 -0 -0 -0 -0 -0 -0 -0 -0 -0 -0 -0 -0 -0 -0 -0 -0 -0 -0 -0
-0 -1 -0 -3 -0 -0 -0 -0 -0 -0 -0 -0 -0 -0 -0 -0 -0 -0 -0 -0 -0 -0 -0 -0 -0 -0 -0 -0 -0 -0 -0 -0 -0 -0 -0 -0 -0 -0 -0 -0 -0 -0 -0 -0 -0
-0 -0 -0 -1 -0 -0 -0 -0 -0 -0 -0 -0 -0 -0 -0 -4 -0 -0 -0 -0 -0 -0 -0 -0 -0 -0 -0 -0 -0 -0 -0 -0 -0 -0 -0 -0 -0 -0 -0 -0 -0 -0 -0 -0 -0
-0 -0 -0 -0 -2 -0 -7 -0 -0 -0 -0 -0 -0 -1 -1 -0 -0 -0 -0 -5 -1 -0 -0 -0 -0 -0 -0 -0 -0 -0 -0 -0 -0 -0 -0 -0 -0 -0 -0 -0 -0 -0 -0 -0 -0
-20 -21 -14 -8 -9 -5 -3 -0 -0 -0 -0 -0 -2 -0 -0 -2 -2 -2 -2 -2 -7 -3 -10 -0 -0 -0 -0 -0 -0 -0 -0 -0 -5 -0 -0 -0 -0 -0 -0 -0 -0 -0 -0 -0 -0
-0 -5 -6 -0 -0 -17 -3 -0 -0 -0 -0 -0 -0 -0 -0 -1 -0 -4 -0 -1 -1 -0 -0 -1 -0 -16 -0 -0 -0 -6 -1 -0 -0 -1 -0 -0 -0 -0 -0 -0 -0 -0 -0 -0 -0
-0 -7 -7 -0 -8 -0 -0 -0 -0 -0 -0 -0 -0 -3 -1 -0 -2 -2 -2 -0 -0 -0 -0 -0 -0 -0 -5 -0 -1 -3 -0 -0 -0 -0 -0 -0 -0 -0 -0 -0 -0 -0 -0 -0 -0
-10 -17 -21 -0 -1 -0 -0 -0 -0 -0 -0 -0 -0 -0 -0 -0 -0 -0 -0 -1 -3 -7 -0 -0 -0 -0 -0 -0 -0 -0 -1 -0 -0 -0 -0 -0 -0 -0 -0 -0 -0 -0 -0 -0 -0
-2 -9 -13 -23 -11 -1 -0 -0 -0 -0 -0 -0 -0 -0 -0 -0 -0 -0 -0 -0 -0 -0 -6 -0 -0 -0 -0 -0 -0 -0 -4 -2 -1 -0 -0 -0 -0 -0 -0 -0 -0 -0 -0 -0 -0
-5 -2 -32 -17 -1 -0 -0 -0 -0 -0 -0 -0 -0 -0 -0 -0 -0 -0 -0 -0 -0 -0 -6 -0 -0 -0 -0 -0 -0 -0 -0 -0 -0 -0 -0 -0 -0 -0 -0 -0 -0 -0 -0 -0 -0
-0 -0 -14 -5 -0 -0 -0 -0 -1 -0 -0 -0 -0 -0 -0 -0 -0 -0 -0 -0 -0 -0 -0 -0 -4 -0 -0 -0 -0 -0 -0 -0 -0 -0 -0 -0 -0 -0 -0 -0 -0 -0 -0 -0 -0
-0 -0 -0 -0 -0 -0 -0 -0 -0 -0 -0 -0 -0 -0 -0 -0 -0 -0 -2 -0 -0 -0 -0 -0 -0 -0 -0 -0 -0 -0 -0 -0 -0 -0 -0 -0 -0 -0 -0 -0 -0 -0 -87 -0 -0
-0 -0 -0 -2 -0 -0 -1 -3 -0 -0 -0 -0 -0 -0 -0 -0 -3 -0 -1 -0 -0 -0 -0 -0 -0 -0 -0 -0 -0 -0 -0 -0 -0 -0 -0 -0 -0 -0 -0 -0 -0 -0 -99 -0 -0
-0 -0 -0 -0 -0 -0 -2 -0 -0 -0 -0 -0 -0 -0 -0 -0 -0 -0 -1 -0 -0 -0 -0 -0 -0 -0 -0 -0 -0 -0 -0 -0 -0 -0 -0 -0 -0 -0 -0 -0 -0 -0 -0 -0 -0
-0 -0 -0 -0 -0 -0 -0 -0 -0 -0 -0 -0 -0 -0 -0 -0 -0 -0 -0 -0 -0 -0 -0 -0 -1 -0 -0 -0 -0 -0 -0 -0 -0 -0 -0 -0 -0 -0 -0 -0 -0 -0 -0 -0 -0
-0 -0 -0 -0 -0 -0 -0 -0 -0 -0 -0 -0 -0 -0 -0 -0 -0 -0 -1 -5 -0 -0 -0 -2 -0 -0 -0 -0 -0 -0 -0 -0 -0 -0 -0 -0 -0 -0 -0 -0 -0 -0 -0 -0 -0
Wind_Speed
24 24 25 24 25 25 24 24 25 26 25 25 23 23 21 19 18 21 22 19 16 18 17 18 17 18 15 14 14 14 21 21 22 20 21 17 19 19 21 21 21 20 21 20 18
32 25 23 23 24 25 24 23 24 25 24 23 22 21 20 19 20 26 25 17 17 17 19 18 18 17 15 14 13 15 19 21 17 19 22 21 20 22 21 22 19 21 20 22 18
35 31 25 22 22 23 23 23 23 23 23 22 21 20 19 20 24 25 23 26 25 20 16 16 16 17 17 15 14 16 19 17 16 18 21 23 25 22 24 28 20 23 23 22 20
36 35 29 27 25 21 22 23 22 21 22 21 20 19 18 17 25 16 16 18 21 20 15 15 17 19 18 19 17 22 20 20 23 28 29 27 24 25 24 23 22 21 23 26 27
37 36 34 31 23 22 20 22 22 21 21 20 19 19 17 20 24 18 18 18 16 11 17 17 18 18 20 18 19 22 21 20 21 26 29 31 31 32 29 27 29 34 35 37 33
39 38 36 34 27 20 20 20 21 21 20 20 19 18 18 24 19 18 19 17 15 12 12 15 18 17 18 19 21 20 22 24 24 26 26 32 38 29 29 29 34 37 42 40 32
41 39 37 36 33 20 19 16 20 22 19 19 18 18 21 25 16 18 18 17 15 13 14 14 12 16 14 20 19 22 29 31 25 22 24 25 37 30 37 33 34 32 36 40 41
41 40 38 37 35 22 18 15 18 21 18 17 17 19 25 20 17 22 17 17 16 14 14 13 13 16 18 18 22 23 26 29 23 22 22 19 31 26 28 28 31 34 38 44 51
42 40 39 37 37 27 19 17 16 17 17 18 19 21 27 20 21 20 18 16 15 15 14 11 12 16 17 21 26 24 31 28 29 22 25 19 35 22 21 27 33 34 36 39 43
41 40 38 36 36 33 15 13 13 16 19 19 22 24 26 19 17 15 16 12 15 11 13 15 17 19 19 20 29 27 28 28 29 26 30 37 45 38 38 41 44 41 40 40 42
42 39 37 37 34 30 16 11 18 24 25 24 21 22 19 15 14 15 13 11 13 14 18 17 22 23 21 19 23 26 30 34 33 33 40 41 50 45 42 43 46 47 48 46 46
41 38 37 36 35 33 21 26 22 20 27 34 29 26 18 16 17 14 8 15 16 19 16 21 29 24 22 23 26 31 37 41 40 35 37 44 61 49 46 47 45 47 47 46 47
40 37 36 37 36 32 27 26 17 16 26 25 29 27 24 20 23 19 12 16 19 20 19 24 22 19 18 24 28 30 34 38 41 42 41 48 63 49 41 40 42 44 49 47 47
39 35 34 35 35 33 34 20 15 15 28 28 26 26 23 19 28 19 11 16 20 21 20 26 25 25 24 27 26 37 28 32 36 38 44 31 58 48 45 46 43 43 42 42 44
36 36 35 34 35 32 26 15 11 17 33 21 21 16 15 19 17 18 14 18 21 19 18 22 22 22 24 25 20 28 25 29 31 35 42 39 44 52 39 46 44 44 42 42 41
37 39 37 34 40 33 22 16 12 24 33 21 18 19 15 20 18 15 13 15 17 20 22 25 21 22 24 21 18 23 26 28 32 32 44 39 36 56 49 50 44 39 37 41 40
40 42 38 36 39 35 29 20 25 31 20 21 19 16 17 19 18 15 14 14 17 21 25 24 22 21 18 23 19 17 22 32 35 34 43 29 32 41 36 37 40 45 43 38 37
41 38 32 37 39 33 34 30 30 27 23 15 15 13 16 12 16 12 12 17 14 19 23 25 29 15 13 13 17 15 17 23 37 36 38 27 39 40 36 39 44 46 44 40 36
30 26 27 34 39 42 34 34 30 24 18 16 11 15 17 16 14 15 18 19 17 10 18 22 25 18 14 13 8 19 16 12 26 24 43 38 37 40 35 49 42 40 40 44 42
20 18 22 28 38 43 36 29 26 19 11 14 21 18 20 17 17 15 18 20 19 9 7 19 25 17 18 13 9 10 16 19 16 35 36 35 34 30 27 41 40 37 35 37 39
15 16 19 27 28 32 35 26 23 15 11 18 19 19 18 18 17 20 21 21 15 13 4 13 15 21 18 7 6 7 12 17 23 24 31 38 34 22 27 29 28 31 32 31 34
14 16 20 29 31 29 24 23 20 15 13 16 16 16 16 14 17 19 22 21 12 9 7 7 24 26 9 12 10 11 15 16 24 28 27 30 29 23 25 18 28 31 32 28 26
15 16 21 30 34 30 23 25 22 19 17 18 18 17 18 19 21 21 19 20 9 7 5 8 21 28 30 23 18 12 15 19 21 22 23 26 24 22 32 31 30 30 28 25 21
16 15 23 26 23 28 25 26 21 17 16 16 17 16 17 19 22 20 19 20 7 17 9 5 21 17 20 20 35 17 15 14 11 11 11 17 19 35 32 33 33 31 28 24 21
14 16 21 26 26 27 23 23 18 20 21 20 20 19 19 21 22 23 23 26 22 25 11 10 28 9 21 20 17 19 19 15 9 15 11 15 21 26 27 26 27 27 24 23 22
15 15 20 18 25 27 28 28 20 20 19 22 21 21 23 25 25 22 23 23 24 18 12 24 27 22 18 12 11 15 7 5 9 14 17 18 20 25 27 23 20 21 20 25 25
12 14 19 22 26 29 30 30 34 23 22 21 24 24 26 29 29 30 29 27 23 20 5 22 22 23 10 17 20 9 18 3 11 12 14 16 17 17 19 21 20 19 19 26 24
Wind_Direction
318 316 313 318 313 309 309 310 307 303 302 299 299 298 299 290 281 276 278 285 293 290 300 297 301 300 303 300 298 295 283 280 279 280 279 292 288 290 289 285 288 287 286 292 296
310 312 311 312 312 306 306 307 307 303 301 299 298 298 298 293 283 270 275 282 286 295 288 288 291 298 298 301 299 287 285 285 288 282 284 287 286 287 289 283 286 289 290 294 290
305 307 305 306 310 309 303 303 304 303 300 300 299 298 295 291 279 276 278 274 278 282 286 289 294 295 292 297 295 292 284 289 294 289 287 286 284 287 282 277 280 284 288 292 292
314 302 306 297 299 308 303 298 300 300 298 299 299 296 295 289 268 287 292 291 276 270 278 284 287 285 288 288 295 288 292 290 289 283 282 283 288 286 281 278 285 287 287 285 283
310 306 299 296 294 298 301 294 294 294 294 296 298 296 291 277 271 283 285 294 292 274 263 274 281 285 284 295 295 290 295 296 294 291 286 285 281 280 278 279 279 276 274 269 274
303 305 298 292 287 293 294 293 288 287 289 292 294 293 285 272 283 282 279 289 292 278 272 276 282 286 293 294 292 301 300 297 296 293 293 286 280 282 280 280 276 273 265 266 274
302 298 298 291 284 281 286 291 284 280 287 288 291 285 276 268 287 277 278 278 284 282 275 280 292 292 299 297 300 300 294 294 297 297 294 300 286 277 278 277 275 273 270 267 265
308 295 293 286 280 276 276 284 281 277 282 286 288 281 268 276 284 267 276 273 276 282 286 287 294 295 297 305 303 300 300 296 306 306 300 290 285 293 287 281 277 273 271 266 256
307 299 289 285 278 274 265 271 280 276 281 282 281 277 265 280 272 271 267 273 277 283 292 303 302 297 303 297 296 298 292 296 300 309 304 291 291 305 299 287 280 278 275 270 267
309 297 287 283 276 266 252 260 272 274 275 278 278 271 266 273 278 284 274 279 282 287 290 291 295 292 295 295 291 296 296 299 297 305 301 292 285 289 286 281 276 277 275 272 269
307 294 284 275 273 265 233 242 260 265 260 259 269 267 275 285 284 283 279 281 287 283 279 289 284 285 290 292 296 302 299 297 298 302 299 293 285 287 287 282 277 274 272 271 269
309 292 279 270 266 265 222 246 251 270 262 252 261 262 277 282 274 280 289 279 279 278 286 289 285 293 298 297 295 295 294 295 299 300 296 294 281 288 286 282 279 275 273 272 269
306 292 279 270 266 265 229 240 250 266 264 264 257 260 263 271 270 272 275 283 280 279 282 285 299 315 299 297 296 297 295 297 296 300 298 295 283 288 288 284 281 276 272 270 268
300 292 284 275 253 253 239 232 239 261 259 259 259 264 257 269 269 272 270 286 285 283 288 293 295 297 302 299 299 297 302 300 300 300 295 302 286 287 287 284 282 281 277 273 269
296 289 282 267 247 245 246 210 225 257 252 259 256 266 263 252 276 281 270 278 281 288 294 297 304 307 303 305 303 303 309 305 303 299 297 291 290 285 290 284 284 284 281 275 270
288 284 277 260 235 238 236 202 223 241 247 253 258 253 251 256 272 283 280 288 295 291 293 295 307 308 308 311 303 312 309 306 305 302 293 293 287 287 287 284 284 284 285 276 270
292 280 263 245 229 227 216 203 226 238 247 250 253 253 252 257 266 274 271 270 288 292 295 304 300 305 309 307 310 306 313 308 306 299 296 304 292 286 294 291 288 281 280 280 272
289 277 255 236 224 218 209 211 234 239 241 255 250 245 257 256 264 271 277 281 284 299 303 305 307 318 320 300 316 302 296 305 306 305 305 309 296 299 298 291 289 283 275 274 271
276 273 248 232 214 200 201 219 234 236 237 238 237 242 254 254 272 273 280 290 293 284 302 309 313 326 328 327 308 316 299 281 306 300 302 300 300 302 297 282 282 287 282 268 264
311 262 237 220 207 199 211 228 234 239 228 233 247 250 246 250 265 273 281 292 295 303 304 321 318 329 324 323 312 311 337 324 300 310 307 307 303 299 312 280 285 290 291 277 259
264 248 235 214 203 204 219 226 228 239 239 244 249 246 254 259 264 273 283 290 306 325 308 327 327 318 322 337 329 316 273 305 310 304 307 308 308 316 305 286 288 293 295 288 258
245 246 226 197 200 213 216 223 232 237 258 256 256 255 253 261 270 277 283 290 324 339 347 321 292 304 236 322 306 292 303 289 299 310 302 297 288 307 292 296 286 289 289 287 261
254 235 204 197 206 211 228 225 230 237 249 251 254 260 261 261 269 274 294 304 322 329 16 328 296 307 301 336 340 323 302 283 300 306 297 308 309 299 259 252 268 273 267 276 256
227 212 191 204 219 212 223 223 227 238 247 254 256 263 264 266 269 283 293 303 352 192 310 358 301 318 241 253 305 304 305 305 278 296 264 236 231 254 245 252 261 270 254 255 243
214 197 198 216 222 219 226 226 227 238 246 250 258 259 264 268 273 275 281 272 269 225 319 315 262 214 246 259 273 271 278 282 234 222 185 213 206 228 229 239 249 241 238 234 227
210 208 217 232 216 211 213 218 223 237 246 247 253 256 255 256 260 273 267 271 252 282 300 252 270 260 258 258 270 278 317 282 189 186 194 207 221 237 229 239 225 226 226 214 213
236 247 215 206 205 207 209 214 210 237 246 252 246 250 250 249 245 240 259 256 262 270 87 273 248 275 227 281 291 76 40 53 117 139 153 161 181 209 211 208 217 229 225 200 203